Regional Weather Roundup
Issued by NWS Green Bay, WI

Home | Current Version | Previous Version | Text Only | Print | Product List | Glossary On
Versions: 1 2 3 4 5 6 7 8 9 10 11 12 13 14 15 16 17 18 19 20 21 22 23 24 25 26 27 28 29 30 31 32 33 34 35 36 37 38 39 40 41 42 43 44 45 46 47 48 49 50
000
ASUS43 KGRB 011010
RWRGRB

NORTH-CENTRAL AND NORTHEAST WISCONSIN REGIONAL WEATHER ROUNDUP
NATIONAL WEATHER SERVICE GREEN BAY WI
400 AM CST SUN MAR 01 2015

WIZ005-009-010>012-018-019-011100-
NORTH CENTRAL WISCONSIN

CITY           SKY/WX    TMP DP  RH WIND       PRES   REMARKS
IRONWOOD       CLOUDY    12   3  67 SW14      30.15S WCI  -3
MANITOWISH WTR FLURRIES   9   1  71 SW8       30.18S WCI  -3
ARBOR VITAE    FLURRIES  11   2  66 SW8       30.19S WCI   0
EAGLE RIVER    CLOUDY     9  -2  62 SW6       30.19S WCI  -1
LAND O LAKES   CLOUDY     9   0  67 SW5       30.18S WCI   1
RHINELANDER    CLOUDY     8  -1  66 SW8       30.21F WCI  -4
PHILLIPS       FLURRIES  10   3  73 SW10      30.21S WCI  -4
ANTIGO         CLOUDY     8   0  69 SW13      30.24F WCI  -7
TOMAHAWK       MOCLDY     8   0  69 CALM      30.23S
MERRILL        CLOUDY    10   1  66 SW7       30.26S WCI  -1
$$

WIZ013-073-011100-
NORTHEAST WISCONSIN

CITY           SKY/WX    TMP DP  RH WIND       PRES   REMARKS
IRON MOUNTAIN  CLEAR      7  -3  64 S3        30.24S
MARINETTE      CLOUDY    14   1  57 W6        30.32S WCI   5
OCONTO         CLEAR     11   3  68 SW6       30.35R WCI   2
$$

WIZ017-030-035>037-045-011100-
CENTRAL WISCONSIN

CITY           SKY/WX    TMP DP  RH WIND       PRES   REMARKS
MEDFORD        FLURRIES   9   2  73 S8        30.23F WCI  -3
WAUSAU         CLOUDY    10   2  69 SW10      30.27F WCI  -4
MOSINEE        CLOUDY    10   5  79 S7        30.28F WCI   0
MARSHFIELD     CLOUDY    11   3  70 SW7       30.27F WCI   0
WISC RAPIDS    CLOUDY    10   2  69 SW9       30.33F WCI  -3
STEVENS POINT  FLURRIES   9   1  72 SW8       30.31F WCI  -4
WAUPACA        CLOUDY    10   2  71 S3        30.35F
SHAWANO        CLEAR     13   1  60 SW5       30.34R WCI   5
CLINTONVILLE   CLEAR      9   0  66 SW7       30.34S WCI  -3
$$

WIZ038-039-048-051-011100-
FOX VALLEY

CITY           SKY/WX    TMP DP  RH WIND       PRES   REMARKS
NWS GREEN BAY  CLEAR     12   6  77 SW8       30.36S WCI   0
APPLETON       FLURRIES  10   5  79 SW7       30.35S WCI   0
OSHKOSH        LGT SNOW  12   7  80 SW3       30.35F
FOND DU LAC    LGT SNOW  13   8  81 SW3       30.37S
$$

WIZ022-050-052-011100-
EAST CENTRAL WISCONSIN

CITY           SKY/WX    TMP DP  RH WIND       PRES   REMARKS
STURGEON BAY   PTCLDY    12   3  67 SW9       30.35F WCI   0
MANITOWOC      FLURRIES  12   9  87 SW6         N/A  WCI   3
SHEBOYGAN      CLOUDY    13   9  84 SW6       30.37S FOG     WCI   4
$$

LMZ563-521-522-541>543-011100-
LAKESHORE

STATION/POSITION TIME  TEMP    WIND        PRES    VSBY  WAVE
                       AIR SEA DIR/SP/G                  HT/PER
                 (UTC) (F)     (DEG/KT/KT) (MB)    (MI)  (FT/S)
SHEBOYGAN LKSHOR 1000   16     240/  7/  8 1030.5R
KEWAUNEE LKSHORE 1000   15     250/  6/ 10 1027.2R
NORTHPORT PIER   1000   15     210/  5/ 11 1026.8S
CHAMBERS ISLAND  1000   14     190/  5/ 11 1027.1F
MENOMINEE LKSHOR 1000   14     210/  6     1027.8R
$$



USA.gov is the U.S. government's official web portal to all federal, state and local government web resources and services.